| time (UTC) | temp F | wind direction | speed knots | gust knots | rain 1hr in | rain 24hr in | rain mn in | humidity % | barometer mb |
| 20260503004814 | 56 | 95 | 0.9 | 3.5 | 0.00 | 0.09 | 0.00 | 94 | 1010.2 |
| 20260503003809 | 56 | 69 | 0.9 | 0.0 | 0.00 | 0.00 | 0.00 | 94 | 1010.5 |
| 20260503002805 | 56 | 67 | 1.7 | 5.2 | 0.00 | 0.09 | 0.00 | 94 | 1010.3 |
| 20260503002308 | 57 | 54 | 0.9 | 2.6 | 0.00 | 0.09 | 0.00 | 94 | 1010.8 |
| 20260503001808 | 57 | 62 | 0.9 | 3.5 | 0.00 | 0.09 | 0.00 | 94 | 1011.2 |
| 20260503001308 | 57 | 43 | 0.0 | 3.5 | 0.00 | 0.09 | 0.00 | 94 | 1011.4 |
| 20260503000814 | 57 | 57 | 0.0 | 0.0 | 0.00 | 0.00 | 0.00 | 93 | 1011.7 |
| 20260502235257 | 58 | 325 | 0.0 | 1.7 | 0.00 | 0.09 | 0.00 | 93 | 1012.3 |
| 20260502234742 | 58 | 316 | 0.9 | 5.2 | 0.00 | 0.09 | 0.00 | 92 | 1012.4 |
| 20260502234236 | 58 | 284 | 0.9 | 5.2 | 0.00 | 0.09 | 0.00 | 92 | 1012.6 |
| 20260502232741 | 57 | 344 | 0.9 | 0.0 | 0.00 | 0.00 | 0.00 | 91 | 1012.7 |
| 20260502231604 | 57 | 230 | 1.7 | 9.6 | 0.00 | 0.09 | 0.02 | 92 | 1013.2 |
| 20260502231110 | 57 | 244 | 0.9 | 9.6 | 0.00 | 0.09 | 0.00 | 92 | 1013.2 |
| 20260502230609 | 57 | 31 | 0.9 | 2.6 | 0.00 | 0.09 | 0.00 | 91 | 1012.2 |
| 20260502230104 | 57 | 69 | 0.9 | 4.3 | 0.00 | 0.09 | 0.00 | 91 | 1011.9 |
| 20260502225600 | 57 | 92 | 0.9 | 0.0 | 0.00 | 0.00 | 0.00 | 91 | 1012.0 |
| 20260502224316 | 57 | 84 | 0.9 | 5.2 | 0.00 | 0.09 | 0.00 | 91 | 1012.1 |
| 20260502223807 | 57 | 129 | 0.9 | 5.2 | 0.00 | 0.09 | 0.00 | 91 | 1012.1 |
| 20260502223313 | 57 | 85 | 0.9 | 5.2 | 0.00 | 0.09 | 0.00 | 91 | 1012.1 |
| 20260502222804 | 58 | 84 | 0.9 | 3.5 | 0.00 | 0.09 | 0.00 | 91 | 1012.1 |
| 20260502221807 | 58 | 132 | 0.0 | 1.7 | 0.00 | 0.09 | 0.00 | 90 | 1012.5 |
| 20260502221259 | 58 | 132 | 0.9 | 4.3 | 0.00 | 0.09 | 0.00 | 90 | 1012.6 |
| 20260502220801 | 58 | 153 | 1.7 | 6.1 | 0.00 | 0.09 | 0.00 | 90 | 1012.5 |
| 20260502220243 | 58 | 132 | 1.7 | 6.1 | 0.00 | 0.09 | 0.00 | 90 | 1012.5 |
| 20260502215224 | 58 | 72 | 0.9 | 3.5 | 0.00 | 0.09 | 0.02 | 90 | 1012.0 |
| 20260502214724 | 58 | 57 | 0.9 | 0.0 | 0.00 | 0.00 | 0.00 | 90 | 1011.9 |
| 20260502214404 | 58 | 61 | 0.9 | 4.3 | 0.00 | 0.09 | 0.02 | 90 | 1011.9 |
| 20260502213904 | 58 | 88 | 0.9 | 6.1 | 0.00 | 0.09 | 0.02 | 90 | 1011.9 |
| 20260502213404 | 58 | 48 | 0.9 | 6.1 | 0.00 | 0.09 | 0.02 | 90 | 1012.0 |
| 20260502211855 | 58 | 167 | 0.9 | 2.6 | 0.00 | 0.09 | 0.02 | 89 | 1012.4 |
| 20260502211343 | 58 | 59 | 0.9 | 4.3 | 0.00 | 0.09 | 0.02 | 89 | 1012.4 |
| 20260502210833 | 58 | 72 | 0.9 | 4.3 | 0.00 | 0.09 | 0.02 | 89 | 1012.3 |
| 20260502210333 | 58 | 62 | 0.9 | 4.3 | 0.00 | 0.09 | 0.02 | 88 | 1012.4 |
| 20260502205331 | 58 | 46 | 0.9 | 3.5 | 0.00 | 0.09 | 0.02 | 87 | 1012.4 |
| 20260502203837 | 59 | 53 | 0.0 | 3.5 | 0.00 | 0.09 | 0.02 | 87 | 1012.6 |
| 20260502203334 | 59 | 53 | 0.9 | 3.5 | 0.00 | 0.09 | 0.02 | 87 | 1012.7 |
| 20260502202833 | 59 | 48 | 0.0 | 2.6 | 0.00 | 0.09 | 0.02 | 87 | 1012.8 |
| 20260502202316 | 59 | 50 | 0.9 | 2.6 | 0.00 | 0.09 | 0.02 | 86 | 1012.8 |
| 20260502201821 | 59 | 28 | 1.7 | 0.0 | 0.00 | 0.00 | 0.00 | 86 | 1012.9 |
| 20260502201146 | 60 | 50 | 0.9 | 4.3 | 0.00 | 0.09 | 0.02 | 85 | 1013.1 |
| 20260502200147 | 60 | 54 | 0.0 | 3.5 | 0.00 | 0.09 | 0.02 | 84 | 1013.2 |
| 20260502195137 | 60 | 48 | 0.0 | 1.7 | 0.00 | 0.09 | 0.02 | 83 | 1013.2 |
| 20260502194136 | 60 | 50 | 0.0 | 1.7 | 0.00 | 0.09 | 0.02 | 82 | 1013.3 |
| 20260502193632 | 61 | 50 | 0.9 | 4.3 | 0.00 | 0.09 | 0.02 | 81 | 1013.2 |
| 20260502193137 | 61 | 49 | 1.7 | 5.2 | 0.00 | 0.09 | 0.02 | 81 | 1013.2 |
| 20260502192632 | 61 | 36 | 1.7 | 5.2 | 0.00 | 0.09 | 0.02 | 80 | 1013.1 |
| 20260502191632 | 62 | 56 | 1.7 | 4.3 | 0.00 | 0.09 | 0.02 | 78 | 1013.1 |
| 20260502190626 | 62 | 27 | 2.6 | 7.0 | 0.00 | 0.09 | 0.02 | 75 | 1013.0 |
| 20260502185628 | 63 | 41 | 1.7 | 4.3 | 0.00 | 0.09 | 0.02 | 71 | 1013.0 |
| 20260502185140 | 64 | 24 | 0.9 | 0.0 | 0.00 | 0.00 | 0.00 | 70 | 1013.0 |
| 20260502184304 | 64 | 355 | 1.7 | 6.1 | 0.00 | 0.09 | 0.02 | 67 | 1013.0 |
| 20260502183803 | 65 | 14 | 1.7 | 6.1 | 0.00 | 0.09 | 0.02 | 65 | 1013.0 |
| 20260502182305 | 66 | 347 | 1.7 | 6.1 | 0.00 | 0.09 | 0.02 | 62 | 1012.9 |
| 20260502181803 | 66 | 15 | 1.7 | 5.2 | 0.00 | 0.09 | 0.02 | 60 | 1013.0 |
| 20260502181250 | 66 | 325 | 2.6 | 5.2 | 0.00 | 0.09 | 0.02 | 59 | 1013.0 |
| 20260502180756 | 67 | 39 | 2.6 | 5.2 | 0.00 | 0.09 | 0.02 | 58 | 1013.0 |
| 20260502170211 | 70 | 342 | 3.5 | 7.8 | 0.00 | 0.09 | 0.02 | 54 | 1013.6 |
| 20260502164155 | 71 | 316 | 2.6 | 5.2 | 0.00 | 0.09 | 0.02 | 55 | 1013.7 |
| 20260502163658 | 71 | 333 | 3.5 | 0.0 | 0.00 | 0.00 | 0.00 | 55 | 1013.7 |
| 20260502163034 | 71 | 344 | 3.5 | 7.8 | 0.00 | 0.10 | 0.03 | 57 | 1013.9 |
| 20260502162517 | 71 | 327 | 3.5 | 7.8 | 0.00 | 0.10 | 0.02 | 60 | 1013.8 |
| 20260502162034 | 71 | 348 | 3.5 | 0.0 | 0.00 | 0.00 | 0.00 | 60 | 1013.9 |
| 20260502161053 | 71 | 5 | 4.3 | 8.7 | 0.00 | 0.10 | 0.02 | 66 | 1013.9 |
| 20260502160559 | 72 | 349 | 4.3 | 0.0 | 0.00 | 0.00 | 0.00 | 69 | 1013.9 |
| 20260502152217 | 73 | 278 | 4.3 | 7.8 | 0.06 | 0.12 | 0.02 | 66 | 1014.1 |
| 20260502151725 | 73 | 355 | 4.3 | 0.0 | 0.00 | 0.00 | 0.00 | 67 | 1014.1 |
| 20260502150839 | 74 | 290 | 5.2 | 9.6 | 0.06 | 0.12 | 0.02 | 67 | 1014.3 |
| 20260502150333 | 74 | 306 | 4.3 | 8.7 | 0.06 | 0.12 | 0.02 | 67 | 1014.3 |
| 20260502130540 | 74 | 344 | 4.3 | 0.0 | 0.00 | 0.00 | 0.00 | 67 | 1015.2 |
| 20260502123235 | 75 | 263 | 5.2 | 13.0 | 0.00 | 0.24 | 0.21 | 62 | 1015.4 |
| 20260502122734 | 75 | 280 | 3.5 | 11.3 | 0.00 | 0.24 | 0.13 | 62 | 1015.4 |
| 20260502121246 | 75 | 209 | 5.2 | 11.3 | 0.00 | 0.24 | 0.05 | 62 | 1015.5 |
| 20260502120739 | 75 | 277 | 5.2 | 11.3 | 0.00 | 0.24 | 0.02 | 62 | 1015.6 |
| 20260502120244 | 74 | 236 | 4.3 | 13.9 | 0.00 | 0.24 | 0.01 | 62 | 1015.6 |
| 20260502115738 | 74 | 309 | 4.3 | 13.9 | 0.00 | 0.24 | 0.00 | 62 | 1015.6 |
| 20260502115241 | 74 | 302 | 5.2 | 0.0 | 0.00 | 0.00 | 0.00 | 62 | 1015.7 |
| 20260502114029 | 74 | 305 | 3.5 | 8.7 | 0.00 | 0.24 | 0.02 | 63 | 1015.8 |
| 20260502113535 | 73 | 293 | 2.6 | 9.6 | 0.00 | 0.24 | 0.01 | 64 | 1015.9 |
| 20260502113031 | 74 | 238 | 3.5 | 9.6 | 0.00 | 0.24 | 0.01 | 64 | 1016.0 |
| 20260502112533 | 73 | 302 | 2.6 | 7.8 | 0.00 | 0.24 | 0.01 | 64 | 1016.1 |
| 20260502112028 | 73 | 323 | 2.6 | 7.8 | 0.00 | 0.24 | 0.00 | 65 | 1016.1 |
| 20260502111533 | 72 | 290 | 2.6 | 8.7 | 0.00 | 0.24 | 0.00 | 65 | 1016.1 |
| 20260502111035 | 71 | 336 | 2.6 | 8.7 | 0.00 | 0.24 | 0.00 | 66 | 1016.1 |
| 20260502110247 | 72 | 282 | 1.7 | 6.1 | 0.00 | 0.24 | 0.00 | 66 | 1016.2 |
| 20260502105746 | 71 | 248 | 1.7 | 6.1 | 0.00 | 0.24 | 0.00 | 66 | 1016.1 |
| 20260502104739 | 72 | 293 | 3.5 | 8.7 | 0.00 | 0.26 | 0.00 | 64 | 1016.2 |
| 20260502104254 | 72 | 248 | 3.5 | 0.0 | 0.00 | 0.00 | 0.00 | 65 | 1016.2 |
| 20260502103550 | 72 | 301 | 2.6 | 8.7 | 0.02 | 0.27 | 0.02 | 64 | 1016.2 |
| 20260502103051 | 71 | 310 | 2.6 | 7.8 | 0.01 | 0.27 | 0.01 | 67 | 1016.1 |
| 20260502102550 | 70 | 280 | 2.6 | 8.7 | 0.01 | 0.28 | 0.01 | 68 | 1016.2 |
| 20260502102051 | 69 | 295 | 0.9 | 8.7 | 0.00 | 0.28 | 0.01 | 67 | 1016.3 |
| 20260502101049 | 68 | 257 | 0.0 | 2.6 | 0.00 | 0.28 | 0.00 | 69 | 1016.1 |
| 20260502100549 | 67 | 270 | 0.0 | 2.6 | 0.00 | 0.28 | 0.00 | 68 | 1016.1 |
| 20260502090139 | 60 | 197 | 0.0 | 0.0 | 0.00 | 0.29 | 0.00 | 74 | 1016.4 |
| 20260502071404 | 64 | 234 | 0.0 | 2.6 | 0.01 | 0.41 | 0.00 | 58 | 1016.4 |
| 20260502070904 | 64 | 253 | 0.0 | 1.7 | 0.01 | 0.41 | 0.00 | 58 | 1016.4 |
| 20260502070402 | 64 | 253 | 0.0 | 2.6 | 0.01 | 0.41 | 0.00 | 58 | 1016.5 |
| 20260502065852 | 64 | 210 | 0.0 | 2.6 | 0.00 | 0.40 | 0.01 | 56 | 1016.6 |
| 20260502065332 | 64 | 215 | 0.0 | 2.6 | 0.00 | 0.40 | 0.01 | 56 | 1016.5 |
| 20260502064837 | 64 | 225 | 0.0 | 5.2 | 0.00 | 0.40 | 0.01 | 56 | 1016.5 |
| 20260502063836 | 64 | 221 | 0.0 | 2.6 | 0.00 | 0.40 | 0.00 | 58 | 1016.5 |
| 20260502063328 | 64 | 221 | 0.0 | 2.6 | 0.00 | 0.40 | 0.00 | 59 | 1016.4 |
| 20260502061536 | 61 | 233 | 0.0 | 2.6 | 0.00 | 0.40 | 0.00 | 62 | 1016.3 |
| 20260502061037 | 60 | 186 | 0.0 | 2.6 | 0.00 | 0.40 | 0.00 | 63 | 1016.3 |
| 20260502060536 | 60 | 211 | 0.0 | 0.9 | 0.00 | 0.00 | 0.00 | 65 | 1016.3 |
| 20260502055933 | 59 | 211 | 0.0 | 0.9 | 0.00 | 0.40 | 0.00 | 66 | 1016.4 |
| 20260502055420 | 58 | 195 | 0.0 | 0.0 | 0.00 | 0.40 | 0.00 | 66 | 1016.4 |
| 20260502054911 | 58 | 192 | 0.0 | 0.0 | 0.00 | 0.40 | 0.00 | 67 | 1016.4 |
| 20260502054407 | 58 | 166 | 0.0 | 0.0 | 0.00 | 0.40 | 0.00 | 66 | 1016.3 |
| 20260502053904 | 57 | 165 | 0.0 | 0.0 | 0.00 | 0.40 | 0.00 | 67 | 1016.3 |
| 20260502053357 | 56 | 165 | 0.0 | 0.0 | 0.00 | 0.40 | 0.00 | 67 | 1016.2 |
| 20260502052850 | 56 | 166 | 0.0 | 0.0 | 0.00 | 0.40 | 0.00 | 68 | 1016.3 |
| 20260502051833 | 55 | 162 | 0.0 | 0.0 | 0.00 | 0.40 | 0.00 | 69 | 1016.2 |
| 20260502051332 | 55 | 162 | 0.0 | 0.0 | 0.00 | 0.40 | 0.00 | 70 | 1016.2 |
| 20260502050323 | 54 | 163 | 0.0 | 0.0 | 0.00 | 0.40 | 0.00 | 70 | 1016.3 |
| 20260502045804 | 54 | 173 | 0.0 | 0.0 | 0.00 | 0.40 | 0.00 | 70 | 1016.3 |
| 20260502045301 | 54 | 165 | 0.0 | 0.0 | 0.00 | 0.40 | 0.00 | 71 | 1016.3 |
| 20260502044800 | 54 | 165 | 0.0 | 0.0 | 0.00 | 0.40 | 0.00 | 71 | 1016.3 |
| 20260502043739 | 53 | 165 | 0.0 | 0.0 | 0.00 | 0.40 | 0.00 | 71 | 1016.3 |
| 20260502043233 | 53 | 165 | 0.0 | 0.0 | 0.00 | 0.40 | 0.00 | 72 | 1016.3 |
| 20260502042732 | 53 | 165 | 0.0 | 0.0 | 0.00 | 0.40 | 0.00 | 72 | 1016.3 |
| 20260502042231 | 53 | 165 | 0.0 | 0.0 | 0.00 | 0.40 | 0.00 | 72 | 1016.3 |
| 20260502041715 | 53 | 165 | 0.0 | 0.0 | 0.00 | 0.40 | 0.00 | 71 | 1016.4 |
| 20260502041206 | 53 | 165 | 0.0 | 0.0 | 0.00 | 0.40 | 0.00 | 70 | 1016.4 |
| 20260502040157 | 54 | 165 | 0.0 | 0.0 | 0.00 | 0.40 | 0.00 | 70 | 1016.4 |
| 20260502035656 | 54 | 165 | 0.0 | 0.0 | 0.00 | 0.40 | 0.00 | 70 | 1016.5 |
| 20260502035156 | 54 | 165 | 0.0 | 0.0 | 0.00 | 0.40 | 0.00 | 69 | 1016.6 |
| 20260502034632 | 54 | 165 | 0.0 | 0.0 | 0.00 | 0.40 | 0.00 | 69 | 1016.6 |
| 20260502034107 | 55 | 165 | 0.0 | 0.0 | 0.00 | 0.40 | 0.00 | 69 | 1016.6 |
| 20260502033606 | 55 | 165 | 0.0 | 0.0 | 0.00 | 0.40 | 0.00 | 68 | 1016.7 |
| 20260502033059 | 55 | 165 | 0.0 | 0.0 | 0.00 | 0.40 | 0.00 | 67 | 1016.8 |
| 20260502032555 | 55 | 165 | 0.0 | 0.0 | 0.00 | 0.40 | 0.00 | 67 | 1016.7 |
| 20260502032041 | 55 | 165 | 0.0 | 0.0 | 0.00 | 0.40 | 0.00 | 67 | 1016.7 |
| 20260502031537 | 55 | 165 | 0.0 | 0.0 | 0.00 | 0.40 | 0.00 | 67 | 1016.7 |
| 20260502031032 | 55 | 165 | 0.0 | 0.0 | 0.00 | 0.40 | 0.00 | 67 | 1016.8 |
| 20260502030532 | 55 | 169 | 0.0 | 0.0 | 0.00 | 0.40 | 0.00 | 67 | 1016.8 |
| 20260502030032 | 55 | 175 | 0.0 | 0.0 | 0.00 | 0.40 | 0.00 | 66 | 1016.9 |
| 20260502025532 | 55 | 188 | 0.0 | 0.9 | 0.00 | 0.40 | 0.00 | 66 | 1016.8 |
| 20260502025032 | 55 | 211 | 0.0 | 0.9 | 0.00 | 0.40 | 0.00 | 66 | 1016.9 |
| 20260502024532 | 56 | 211 | 0.0 | 1.7 | 0.00 | 0.40 | 0.00 | 65 | 1016.9 |
| 20260502023531 | 56 | 211 | 0.0 | 0.0 | 0.00 | 0.40 | 0.00 | 64 | 1016.9 |
| 20260502023015 | 56 | 211 | 0.0 | 0.0 | 0.00 | 0.40 | 0.00 | 64 | 1016.9 |
| 20260502022505 | 56 | 211 | 0.0 | 0.0 | 0.00 | 0.40 | 0.00 | 64 | 1016.9 |
| 20260502022005 | 56 | 211 | 0.0 | 0.0 | 0.00 | 0.40 | 0.00 | 64 | 1017.0 |
| 20260502021505 | 56 | 211 | 0.0 | 0.0 | 0.00 | 0.40 | 0.00 | 63 | 1017.1 |
| 20260502020506 | 56 | 211 | 0.0 | 0.0 | 0.00 | 0.40 | 0.00 | 63 | 1017.2 |
| 20260502020006 | 56 | 211 | 0.0 | 0.0 | 0.00 | 0.40 | 0.00 | 64 | 1017.1 |
| 20260502015009 | 56 | 212 | 0.0 | 0.0 | 0.00 | 0.40 | 0.00 | 64 | 1017.2 |
| 20260502014004 | 57 | 212 | 0.0 | 0.0 | 0.00 | 0.40 | 0.00 | 63 | 1017.3 |
| 20260502013446 | 57 | 212 | 0.0 | 0.0 | 0.00 | 0.40 | 0.00 | 63 | 1017.3 |
| 20260502012939 | 57 | 212 | 0.0 | 0.0 | 0.00 | 0.40 | 0.00 | 63 | 1017.3 |
| 20260502012414 | 57 | 212 | 0.0 | 0.0 | 0.00 | 0.40 | 0.00 | 63 | 1017.4 |
| 20260502011909 | 57 | 212 | 0.0 | 0.0 | 0.00 | 0.40 | 0.00 | 62 | 1017.5 |
| 20260502011359 | 57 | 212 | 0.0 | 0.0 | 0.00 | 0.40 | 0.00 | 62 | 1017.5 |
| 20260502010851 | 58 | 212 | 0.0 | 0.0 | 0.00 | 0.40 | 0.00 | 61 | 1017.6 |
| 20260502010357 | 57 | 212 | 0.0 | 0.0 | 0.00 | 0.40 | 0.00 | 61 | 1017.6 |
| 20260502005837 | 58 | 212 | 0.0 | 0.0 | 0.00 | 0.40 | 0.00 | 62 | 1017.8 |
| 20260502005312 | 58 | 213 | 0.0 | 0.0 | 0.00 | 0.40 | 0.00 | 62 | 1017.9 |